Location: Chisholm
(54.9102°N, 114.1701°W)
Time: 06:09:16
(UTC+00:00)

ISS - Visible Passes

Search period start: 27 November 2021 00:00
Search period end: 07 December 2021 00:00
Orbit: 417 x 423 km, 51.6° (Epoch: 27 November)

Date Brightness Start Highest point End Pass type
(mag) Time Alt. Az. Time Alt. Az. Time Alt. Az.
27 Nov -2.4 00:34:14 10° SW 00:37:15 30° SSE 00:39:44 13° E visible
27 Nov -2.3 02:10:26 10° WSW 02:12:43 35° SW 02:12:43 35° SW visible
28 Nov -3.1 01:23:21 10° WSW 01:26:38 46° S 01:27:25 38° SE visible
28 Nov -0.4 02:59:58 10° W 03:00:24 13° W 03:00:24 13° W visible
29 Nov -2.8 00:36:19 10° WSW 00:39:33 42° SSE 00:42:06 15° E visible
29 Nov -2.1 02:12:49 10° W 02:15:05 33° SW 02:15:05 33° SW visible
30 Nov -3.1 01:25:40 10° W 01:28:58 48° S 01:29:47 38° SE visible
30 Nov -0.3 03:02:29 10° W 03:02:46 12° W 03:02:46 12° W visible
01 Dec -3.0 00:38:32 10° WSW 00:41:50 49° S 00:44:30 14° ESE visible
01 Dec -1.9 02:15:14 10° W 02:17:29 28° SW 02:17:29 28° SW visible
01 Dec -2.8 23:51:24 10° WSW 23:54:41 47° S 23:57:58 10° E visible
02 Dec -2.6 01:28:00 10° W 01:31:13 39° SSW 01:32:15 30° SSE visible
03 Dec -2.8 00:40:48 10° W 00:44:03 44° S 00:47:04 12° ESE visible
03 Dec -1.4 02:17:46 10° W 02:20:03 21° SW 02:20:03 21° SW visible
03 Dec -2.8 23:53:35 10° W 23:56:53 48° S 00:00:10 10° ESE visible
04 Dec -1.9 01:30:24 10° W 01:33:19 27° SSW 01:34:58 18° SSE visible
05 Dec -2.1 00:43:04 10° W 00:46:10 33° SSW 00:49:15 10° SE visible
05 Dec -0.8 02:21:00 10° WSW 02:22:16 12° SW 02:23:01 11° SSW visible
05 Dec -2.3 23:55:47 10° W 23:58:59 39° SSW 00:02:11 10° SE visible
06 Dec -0.9 01:33:03 10° WSW 01:35:13 16° SSW 01:37:22 10° S visible
